This demonstration page uses our WeatherBlox Daily Observations layout. Learn more.

Left ArrowRight Arrow

39.12711, -84.51439

Hourly Observations for July 26, 2018

Temp ( °F °C ) Dew Point ( °F °C ) Humidity (%) Winds ( mph kmh ) Pressure ( in mb ) Visibility ( mi km ) Precip ( " mm )
12:53 am 00:53 Clear 68 20 66 18.9 93 93 Calm 29.96 1014 10 16 0.00 0.00
1:53 am 01:53 Clear 67 19.4 66 18.9 97 97 Calm 29.95 1014 10 16 0.00 0.00
2:53 am 02:53 Clear 66 18.9 65 18.3 96 96 Calm 29.94 1014 8 13 0.00 0.00
3:53 am 03:53 Clear with Mist and Fog 64 17.8 64 17.8 100 100 Calm 29.94 1014 1 2 0.00 0.00
3:58 am 03:58 Clear with Mist and Fog 64 17.8 64 17.8 100 100 Calm 29.94 1014 3 5 0.00 0.00
4:53 am 04:53 Clear with Mist and Fog 65 18.3 65 18.3 100 100 Calm 29.94 1014 5 8 0.00 0.00
5:53 am 05:53 Clear with Mist and Fog 64 17.8 64 17.8 100 100 Calm 29.95 1014 6 10 0.00 0.00
6:53 am 06:53 Sunny with Mist and Fog 65 18.3 65 18.3 100 100 Calm 29.96 1015 6 10 0.00 0.00
7:53 am 07:53 Sunny with Mist and Fog 67 19.4 67 19.4 100 100 Calm 29.97 1015 6 10 0.00 0.00
8:53 am 08:53 Sunny 71 21.7 69 20.6 94 94 SW 3 6 29.97 1015 10 16 0.00 0.00
9:53 am 09:53 Sunny 77 25 69 20.6 77 77 SSW 3 6 29.97 1015 10 16 0.00 0.00
10:53 am 10:53 Sunny 80 26.7 67 19.4 64 64 S 7 11 29.96 1015 10 16 0.00 0.00
11:53 am 11:53 Sunny 83 28.3 69 20.6 63 63 SSW 9 15 29.97 1015 10 16 0.00 0.00
12:53 pm 12:53 Sunny 84 28.9 65 18.3 53 53 WSW 8 13 29.96 1015 10 16 0.00 0.00
1:53 pm 13:53 Mostly Sunny 86 30 66 18.9 51 51 W 5 7 29.95 1014 10 16 0.00 0.00
2:53 pm 14:53 Partly Cloudy 85 29.4 68 20 57 57 SSW 12 19 29.94 1014 10 16 0.00 0.00
3:53 pm 15:53 Mostly Sunny 85 29.4 66 18.9 53 53 SSW 12 19 29.93 1014 10 16 0.00 0.00
4:53 pm 16:53 Mostly Sunny 85 29.4 68 20 57 57 S 10 17 29.91 1013 10 16 0.00 0.00
5:53 pm 17:53 Partly Cloudy 85 29.4 68 20 57 57 SW 15 24 29.91 1013 10 16 0.00 0.00
6:53 pm 18:53 Mostly Cloudy 84 28.9 68 20 59 59 SW 9 15 29.91 1013 10 16 0.00 0.00
7:53 pm 19:53 Sunny 80 26.7 67 19.4 64 64 SSW 9 15 29.92 1013 10 16 0.00 0.00
8:53 pm 20:53 Sunny 77 25 67 19.4 71 71 SSW 9 15 29.93 1014 10 16 0.00 0.00
9:53 pm 21:53 Partly Cloudy with Light Rain 77 25 70 21.1 79 79 WNW 8 13 29.94 1014 10 16 0.01 0.25
10:53 pm 22:53 Clear 75 23.9 70 21.1 84 84 WSW 5 7 29.96 1015 10 16 0.00 0.03
11:53 pm 23:53 Cloudy 74 23.3 71 21.7 91 91 VRB 3 6 29.96 1015 10 16 0.00 0.00

Powered by AerisWeather